Bostic, NC

2:42 PM EST on February 23, 2017 (GMT -0500)
Rutherford County-Marchman

Weather History for KFQD - January, 2013

Change the Weather History Date:

Monday, January 7, 2013

  Actual Average (KAVL) Record (KAVL)
Temperature  
Mean Temperature 40 °F -  
Max Temperature 52 °F 47 °F 70 °F (1913)
Min Temperature 29 °F 28 °F -1 °F (2014)
Degree Days  
Heating Degree Days 25    
Moisture  
Dew Point 27 °F    
Average Humidity 61    
Maximum Humidity 89    
Minimum Humidity 37    
Precipitation  
Precipitation 0.00 in - - ()
Sea Level Pressure  
Sea Level Pressure 30.34 in    
Wind  
Wind Speed 1 mph (East)    
Max Wind Speed 8 mph    
Max Gust Speed -    
Visibility 10 miles    
Events      
Averages and records for this station are not official NWS values.
T = Trace of Precipitation, MM = Missing Value Source: NWS Daily Summary

Daily Weather History Graph

Daily Weather History Graph

Search for Another Location

Airport or City:

Trip Planner

Search our weather history database for the weather conditions in past years. The results will help you decide how hot, cold, wet, or windy it might be!

Date:

Astronomy

Jan. 07, 2013 Rise Set
Actual Time 7:37 AM EST 5:31 PM EST
Civil Twilight 7:09 AM EST 5:59 PM EST
Nautical Twilight 6:37 AM EST 6:30 PM EST
Astronomical Twilight 6:06 AM EST 7:01 PM EST
Moon 3:02 AM EST (1/7) 1:39 PM EST (1/7)
Length of Visible Light 10h 49m
Length of Day
9h 53m
Waning Crescent, 23% of the Moon is Illuminated
Jan 7
Waning Crescent
Jan 11
New
Jan 18
First Quarter
Jan 26
Full
Feb 3
Last Quarter

Hourly Weather History & Observations

Time (EST) Temp. Windchill Dew Point Humidity Pressure Visibility Wind Dir Wind Speed Gust Speed Precip Events Conditions
12:35 AM 34.3 °F - 27.5 °F 76% 30.21 in 10.0 mi Calm Calm - N/A   Clear
12:55 AM 34.3 °F - 27.7 °F 77% 30.21 in 10.0 mi Calm Calm - N/A   Clear
1:15 AM 33.8 °F - 27.5 °F 78% 30.21 in 10.0 mi Calm Calm - N/A   Clear
1:35 AM 30.7 °F - 26.8 °F 85% 30.21 in 10.0 mi Calm Calm - N/A   Clear
1:55 AM 31.8 °F - 27.3 °F 83% 30.22 in 10.0 mi Calm Calm - N/A   Clear
2:15 AM 29.5 °F 24.5 °F 26.6 °F 89% 30.22 in 10.0 mi North 4.6 mph - N/A   Clear
2:35 AM 29.7 °F - 26.1 °F 86% 30.23 in 10.0 mi Calm Calm - N/A   Clear
2:55 AM 31.8 °F - 27.3 °F 83% 30.24 in 10.0 mi Calm Calm - N/A   Clear
3:15 AM 37.8 °F 31.8 °F 28.2 °F 68% 30.24 in 10.0 mi North 8.1 mph - N/A   Clear
3:35 AM 37.6 °F 33.1 °F 27.7 °F 67% 30.24 in 10.0 mi North 5.8 mph - N/A   Clear
3:55 AM 38.1 °F 34.6 °F 27.3 °F 65% 30.24 in 10.0 mi NNE 4.6 mph - N/A   Clear
4:15 AM 38.3 °F - 26.2 °F 62% 30.24 in 10.0 mi Calm Calm - N/A   Clear
4:35 AM 37.2 °F - 26.2 °F 65% 30.25 in 10.0 mi Calm Calm - N/A   Clear
4:55 AM 34.9 °F - 26.2 °F 71% 30.26 in 10.0 mi Calm Calm - N/A   Clear
5:15 AM 34.3 °F 31.4 °F 25.5 °F 70% 30.27 in 10.0 mi WNW 3.5 mph - N/A   Clear
5:35 AM 36.1 °F 32.3 °F 25.2 °F 64% 30.27 in 10.0 mi North 4.6 mph - N/A   Clear
5:55 AM 31.5 °F - 25.2 °F 78% 30.28 in 10.0 mi Calm Calm - N/A   Clear
6:15 AM 32.4 °F 29.1 °F 25.2 °F 75% 30.29 in 10.0 mi West 3.5 mph - N/A   Clear
6:55 AM 33.4 °F - 25.3 °F 72% 30.31 in 10.0 mi Calm Calm - N/A   Clear
7:35 AM 29.1 °F - 24.8 °F 84% 30.33 in 10.0 mi Calm Calm - N/A   Clear
7:55 AM 29.7 °F - 24.4 °F 81% 30.35 in 10.0 mi Calm Calm - N/A   Clear
8:15 AM 31.5 °F 26.8 °F 25.7 °F 79% 30.35 in 10.0 mi NW 4.6 mph - N/A   Clear
8:35 AM 33.8 °F - 27.1 °F 77% 30.37 in 10.0 mi Calm Calm - N/A   Clear
8:55 AM 36.5 °F - 27.7 °F 70% 30.38 in 10.0 mi Calm Calm - N/A   Clear
9:15 AM 37.4 °F - 26.8 °F 66% 30.38 in 10.0 mi Calm Calm - N/A   Clear
9:35 AM 39.4 °F - 27.5 °F 62% 30.39 in 10.0 mi Calm Calm - N/A   Clear
9:55 AM 41.2 °F - 27.1 °F 57% 30.40 in 10.0 mi Calm Calm - N/A   Clear
10:15 AM 43.0 °F - 27.5 °F 54% 30.41 in 10.0 mi Calm Calm - N/A   Clear
10:35 AM 44.6 °F - 26.8 °F 50% 30.41 in 10.0 mi Calm Calm - N/A   Clear
10:55 AM 45.3 °F - 26.8 °F 48% 30.41 in 10.0 mi Calm Calm - N/A   Clear
11:15 AM 45.7 °F - 27.0 °F 48% 30.41 in 10.0 mi Calm Calm - N/A   Clear
11:35 AM 46.6 °F - 27.0 °F 46% 30.40 in 10.0 mi Calm Calm - N/A   Clear
11:55 AM 47.1 °F - 25.5 °F 43% 30.39 in 10.0 mi Calm Calm - N/A   Clear
12:15 PM 47.7 °F - 26.8 °F 44% 30.39 in 10.0 mi Calm Calm - N/A   Clear
12:35 PM 49.3 °F - 27.5 °F 43% 30.38 in 10.0 mi South 6.9 mph - N/A   Clear
12:55 PM 49.1 °F - 27.5 °F 43% 30.37 in 10.0 mi SE 3.5 mph - N/A   Clear
1:15 PM 49.6 °F - 27.3 °F 42% 30.36 in 10.0 mi ESE 3.5 mph - N/A   Clear
1:35 PM 50.4 °F - 26.1 °F 39% 30.36 in 10.0 mi Calm Calm - N/A   Clear
2:15 PM 51.1 °F - 26.1 °F 38% 30.34 in 10.0 mi Calm Calm - N/A   Clear
2:35 PM 51.3 °F - 26.2 °F 38% 30.34 in 10.0 mi Calm Calm - N/A   Clear
2:55 PM 51.1 °F - 26.2 °F 38% 30.34 in 10.0 mi Calm Calm - N/A   Clear
3:15 PM 51.6 °F - 26.1 °F 37% 30.34 in 10.0 mi SSE 3.5 mph - N/A   Clear
3:35 PM 51.8 °F - 26.4 °F 37% 30.35 in 10.0 mi SSE 5.8 mph - N/A   Clear
3:55 PM 51.8 °F - 26.4 °F 37% 30.35 in 10.0 mi SSE 3.5 mph - N/A   Clear
4:15 PM 51.3 °F - 26.6 °F 38% 30.36 in 10.0 mi SSE 8.1 mph - N/A   Clear
4:35 PM 50.5 °F - 26.6 °F 39% 30.37 in 10.0 mi SE 5.8 mph - N/A   Clear
4:55 PM 49.3 °F - 26.1 °F 40% 30.37 in 10.0 mi South 6.9 mph - N/A   Clear
5:15 PM 48.2 °F - 25.9 °F 42% 30.38 in 10.0 mi SSE 4.6 mph - N/A   Clear
5:35 PM 47.3 °F - 25.9 °F 43% 30.38 in 10.0 mi SE 3.5 mph - N/A   Clear
6:15 PM 46.4 °F - 26.4 °F 46% 30.39 in 10.0 mi Calm Calm - N/A   Clear
6:35 PM 46.0 °F 44.8 °F 26.4 °F 46% 30.39 in 10.0 mi SE 3.5 mph - N/A   Clear
6:55 PM 44.8 °F - 26.6 °F 49% 30.39 in 10.0 mi Calm Calm - N/A   Clear
7:15 PM 44.4 °F 42.9 °F 27.0 °F 50% 30.38 in 10.0 mi East 3.5 mph - N/A   Clear
7:35 PM 43.0 °F 41.3 °F 27.1 °F 54% 30.39 in 10.0 mi ENE 3.5 mph - N/A   Clear
7:55 PM 42.6 °F - 27.0 °F 54% 30.38 in 10.0 mi Calm Calm - N/A   Clear
8:15 PM 37.9 °F - 27.5 °F 66% 30.38 in 10.0 mi Calm Calm - N/A   Clear
8:35 PM 37.6 °F - 27.5 °F 67% 30.39 in 10.0 mi Calm Calm - N/A   Clear
8:55 PM 36.3 °F - 27.5 °F 70% 30.39 in 10.0 mi Calm Calm - N/A   Clear
9:15 PM 35.6 °F - 27.7 °F 73% 30.39 in 10.0 mi Calm Calm - N/A   Clear
9:35 PM 35.8 °F - 28.0 °F 73% 30.40 in 10.0 mi Calm Calm - N/A   Clear
9:55 PM 35.1 °F - 27.9 °F 75% 30.40 in 10.0 mi Calm Calm - N/A   Clear
10:35 PM 32.9 °F 27.5 °F 27.5 °F 81% 30.41 in 10.0 mi NW 5.8 mph - N/A   Clear
10:55 PM 32.7 °F 29.6 °F 27.1 °F 80% 30.41 in 10.0 mi NNW 3.5 mph - N/A   Clear
11:15 PM 32.0 °F 28.7 °F 27.1 °F 82% 30.41 in 10.0 mi NNW 3.5 mph - N/A   Clear
11:35 PM 31.8 °F - 27.0 °F 82% 30.41 in 10.0 mi Calm Calm - N/A   Clear
11:55 PM 30.2 °F 26.7 °F 26.6 °F 86% 30.41 in 10.0 mi NNW 3.5 mph - N/A   Clear